Time,TemperatureF,DewpointF,PressureIn,WindDirection,WindDirectionDegrees,WindSpeedMPH,WindSpeedGustMPH,Humidity,HourlyPrecipIn,Conditions,Clouds,dailyrainin,SolarRadiationWatts/m^2,SoftwareType,DateUTC
2013-03-09 00:02:00,62.0,35.0,-100.00,SE,139,7.0,13.0,36,0.00,,,0.00,0.000000,,2013-03-09 06:02:00,
2013-03-09 00:32:00,62.0,35.0,-100.00,SE,136,8.0,12.0,37,0.00,,,0.00,0.000000,,2013-03-09 06:32:00,
2013-03-09 00:42:00,62.0,35.0,-100.00,SE,136,8.0,12.0,37,0.00,,,0.00,0.000000,,2013-03-09 06:42:00,
2013-03-09 00:52:00,62.0,35.0,-100.00,SE,136,8.0,12.0,37,0.00,,,0.00,0.000000,,2013-03-09 06:52:00,
2013-03-09 01:01:00,62.0,35.0,-100.00,SE,136,8.0,12.0,37,0.00,,,0.00,0.000000,,2013-03-09 07:01:00,
2013-03-09 01:32:00,60.0,36.0,-100.00,SE,145,7.0,14.0,40,0.00,,,0.00,0.000000,,2013-03-09 07:32:00,
2013-03-09 01:42:00,60.0,36.0,-100.00,SE,145,7.0,14.0,40,0.00,,,0.00,0.000000,,2013-03-09 07:42:00,
2013-03-09 01:52:00,60.0,36.0,-100.00,SE,145,7.0,14.0,40,0.00,,,0.00,0.000000,,2013-03-09 07:52:00,
2013-03-09 02:01:00,60.0,36.0,-100.00,SE,145,7.0,14.0,40,0.00,,,0.00,0.000000,,2013-03-09 08:01:00,
2013-03-09 02:32:00,58.0,37.0,-100.00,SE,143,7.0,11.0,46,0.00,,,0.00,0.000000,,2013-03-09 08:32:00,
2013-03-09 02:42:00,58.0,37.0,-100.00,SE,143,7.0,11.0,46,0.00,,,0.00,0.000000,,2013-03-09 08:42:00,
2013-03-09 02:52:00,58.0,37.0,-100.00,SE,143,7.0,11.0,46,0.00,,,0.00,0.000000,,2013-03-09 08:52:00,
2013-03-09 03:01:00,58.0,37.0,-100.00,SE,143,7.0,11.0,46,0.00,,,0.00,0.000000,,2013-03-09 09:01:00,
2013-03-09 03:32:00,56.0,39.0,-100.00,SE,141,7.0,10.0,53,0.00,,,0.00,0.000000,,2013-03-09 09:32:00,
2013-03-09 03:42:00,56.0,39.0,-100.00,SE,141,7.0,10.0,53,0.00,,,0.00,0.000000,,2013-03-09 09:42:00,
2013-03-09 03:52:00,56.0,39.0,-100.00,SE,141,7.0,10.0,53,0.00,,,0.00,0.000000,,2013-03-09 09:52:00,
2013-03-09 04:01:00,56.0,39.0,-100.00,SE,141,7.0,10.0,53,0.00,,,0.00,0.000000,,2013-03-09 10:01:00,
2013-03-09 04:32:00,55.0,41.0,-100.00,SE,137,6.0,10.0,58,0.00,,,0.00,0.000000,,2013-03-09 10:32:00,
2013-03-09 04:42:00,55.0,41.0,-100.00,SE,137,6.0,10.0,58,0.00,,,0.00,0.000000,,2013-03-09 10:42:00,
2013-03-09 04:52:00,55.0,41.0,-100.00,SE,137,6.0,10.0,58,0.00,,,0.00,0.000000,,2013-03-09 10:52:00,
2013-03-09 05:01:00,55.0,41.0,-100.00,SE,137,6.0,10.0,58,0.00,,,0.00,0.000000,,2013-03-09 11:01:00,
2013-03-09 05:32:00,57.0,45.0,-100.00,SE,146,8.0,11.0,64,0.00,,,0.00,0.000000,,2013-03-09 11:32:00,
2013-03-09 05:42:00,57.0,45.0,-100.00,SE,146,8.0,11.0,64,0.00,,,0.00,0.000000,,2013-03-09 11:42:00,
2013-03-09 05:52:00,57.0,45.0,-100.00,SE,146,8.0,11.0,64,0.00,,,0.00,0.000000,,2013-03-09 11:52:00,
2013-03-09 06:01:00,57.0,45.0,-100.00,SE,146,8.0,11.0,64,0.00,,,0.00,0.000000,,2013-03-09 12:01:00,
2013-03-09 06:32:00,57.0,47.0,-100.00,SSE,151,8.0,13.0,69,0.00,,,0.00,0.000000,,2013-03-09 12:32:00,
2013-03-09 06:42:00,57.0,47.0,-100.00,SSE,151,8.0,13.0,69,0.00,,,0.00,0.000000,,2013-03-09 12:42:00,
2013-03-09 06:52:00,57.0,47.0,-100.00,SSE,151,8.0,13.0,69,0.00,,,0.00,0.000000,,2013-03-09 12:52:00,
2013-03-09 07:02:00,57.0,47.0,-100.00,SSE,151,8.0,13.0,69,0.00,,,0.00,0.000000,,2013-03-09 13:02:00,
2013-03-09 07:32:00,57.0,47.0,-100.00,SE,144,8.0,12.0,70,0.00,,,0.00,2.000000,,2013-03-09 13:32:00,
2013-03-09 07:42:00,57.0,47.0,-100.00,SE,144,8.0,12.0,70,0.00,,,0.00,2.000000,,2013-03-09 13:42:00,
2013-03-09 07:52:00,57.0,47.0,-100.00,SE,144,8.0,12.0,70,0.00,,,0.00,2.000000,,2013-03-09 13:52:00,
2013-03-09 08:01:00,57.0,47.0,-100.00,SE,144,8.0,12.0,70,0.00,,,0.00,2.000000,,2013-03-09 14:01:00,
2013-03-09 08:32:00,58.0,49.0,-100.00,SE,136,10.0,15.0,72,0.00,,,0.00,32.000000,,2013-03-09 14:32:00,
2013-03-09 08:42:00,58.0,49.0,-100.00,SE,136,10.0,15.0,72,0.00,,,0.00,32.000000,,2013-03-09 14:42:00,
2013-03-09 08:52:00,58.0,49.0,-100.00,SE,136,10.0,15.0,72,0.00,,,0.00,32.000000,,2013-03-09 14:52:00,
2013-03-09 09:02:00,58.0,49.0,-100.00,SE,136,10.0,15.0,72,0.00,,,0.00,32.000000,,2013-03-09 15:02:00,
2013-03-09 09:32:00,60.0,52.0,-100.00,SE,145,11.0,18.0,74,0.00,,,0.00,138.000000,,2013-03-09 15:32:00,
2013-03-09 09:42:00,60.0,52.0,-100.00,SE,145,11.0,18.0,74,0.00,,,0.00,138.000000,,2013-03-09 15:42:00,
2013-03-09 09:52:00,60.0,52.0,-100.00,SE,145,11.0,18.0,74,0.00,,,0.00,138.000000,,2013-03-09 15:52:00,
2013-03-09 10:01:00,60.0,52.0,-100.00,SE,145,11.0,18.0,74,0.00,,,0.00,138.000000,,2013-03-09 16:01:00,
2013-03-09 10:32:00,62.0,53.0,-100.00,SSE,159,12.0,19.0,73,0.00,,,0.00,265.000000,,2013-03-09 16:32:00,
2013-03-09 10:42:00,62.0,53.0,-100.00,SSE,159,12.0,19.0,73,0.00,,,0.00,265.000000,,2013-03-09 16:42:00,
2013-03-09 10:52:00,62.0,53.0,-100.00,SSE,159,12.0,19.0,73,0.00,,,0.00,265.000000,,2013-03-09 16:52:00,
2013-03-09 11:01:00,62.0,53.0,-100.00,SSE,159,12.0,19.0,73,0.00,,,0.00,265.000000,,2013-03-09 17:01:00,
2013-03-09 11:32:00,61.0,55.0,-100.00,SSE,148,13.0,20.0,80,0.00,,,0.00,85.000000,,2013-03-09 17:32:00,
2013-03-09 11:42:00,61.0,55.0,-100.00,SSE,148,13.0,20.0,80,0.00,,,0.00,85.000000,,2013-03-09 17:42:00,
2013-03-09 11:52:00,61.0,55.0,-100.00,SSE,148,13.0,20.0,80,0.00,,,0.00,85.000000,,2013-03-09 17:52:00,
2013-03-09 12:01:00,61.0,55.0,-100.00,SSE,148,13.0,20.0,80,0.00,,,0.00,85.000000,,2013-03-09 18:01:00,
2013-03-09 12:32:00,63.0,56.0,-100.00,SSE,148,11.0,18.0,78,0.00,,,0.00,91.000000,,2013-03-09 18:32:00,
2013-03-09 12:42:00,63.0,56.0,-100.00,SSE,148,11.0,18.0,78,0.00,,,0.00,91.000000,,2013-03-09 18:42:00,
2013-03-09 12:52:00,63.0,56.0,-100.00,SSE,148,11.0,18.0,78,0.00,,,0.00,91.000000,,2013-03-09 18:52:00,
2013-03-09 13:01:00,63.0,56.0,-100.00,SSE,148,11.0,18.0,78,0.00,,,0.00,91.000000,,2013-03-09 19:01:00,
2013-03-09 13:32:00,64.0,56.0,-100.00,SSE,148,11.0,19.0,74,0.00,,,0.00,147.000000,,2013-03-09 19:32:00,
2013-03-09 13:42:00,64.0,56.0,-100.00,SSE,148,11.0,19.0,74,0.00,,,0.00,147.000000,,2013-03-09 19:42:00,
2013-03-09 13:52:00,64.0,56.0,-100.00,SSE,148,11.0,19.0,74,0.00,,,0.00,147.000000,,2013-03-09 19:52:00,
2013-03-09 14:01:00,64.0,56.0,-100.00,SSE,148,11.0,19.0,74,0.00,,,0.00,147.000000,,2013-03-09 20:01:00,
2013-03-09 14:32:00,64.0,57.0,-100.00,SSE,152,11.0,20.0,77,0.00,,,0.00,85.000000,,2013-03-09 20:32:00,
2013-03-09 14:42:00,64.0,57.0,-100.00,SSE,152,11.0,20.0,77,0.00,,,0.00,85.000000,,2013-03-09 20:42:00,
2013-03-09 14:52:00,64.0,57.0,-100.00,SSE,152,11.0,20.0,77,0.00,,,0.00,85.000000,,2013-03-09 20:52:00,
2013-03-09 15:02:00,64.0,57.0,-100.00,SSE,152,11.0,20.0,77,0.00,,,0.00,85.000000,,2013-03-09 21:02:00,
2013-03-09 15:32:00,65.0,58.0,-100.00,SSE,147,12.0,18.0,78,0.00,,,0.00,144.000000,,2013-03-09 21:32:00,
2013-03-09 15:42:00,65.0,58.0,-100.00,SSE,147,12.0,18.0,78,0.00,,,0.00,144.000000,,2013-03-09 21:42:00,
2013-03-09 15:52:00,65.0,58.0,-100.00,SSE,147,12.0,18.0,78,0.00,,,0.00,144.000000,,2013-03-09 21:52:00,
2013-03-09 16:01:00,65.0,58.0,-100.00,SSE,147,12.0,18.0,78,0.00,,,0.00,144.000000,,2013-03-09 22:01:00,
2013-03-09 16:32:00,67.0,58.0,-100.00,SSE,147,13.0,21.0,73,0.00,,,0.00,167.000000,,2013-03-09 22:32:00,
2013-03-09 16:42:00,67.0,58.0,-100.00,SSE,147,13.0,21.0,73,0.00,,,0.00,167.000000,,2013-03-09 22:42:00,
2013-03-09 16:52:00,67.0,58.0,-100.00,SSE,147,13.0,21.0,73,0.00,,,0.00,167.000000,,2013-03-09 22:52:00,
2013-03-09 17:01:00,67.0,58.0,-100.00,SSE,147,13.0,21.0,73,0.00,,,0.00,167.000000,,2013-03-09 23:01:00,
2013-03-09 17:32:00,68.0,59.0,-100.00,SE,141,14.0,22.0,72,0.00,,,0.00,72.000000,,2013-03-09 23:32:00,
2013-03-09 17:42:00,68.0,59.0,-100.00,SE,141,14.0,22.0,72,0.00,,,0.00,72.000000,,2013-03-09 23:42:00,
2013-03-09 17:52:00,68.0,59.0,-100.00,SE,141,14.0,22.0,72,0.00,,,0.00,72.000000,,2013-03-09 23:52:00,
2013-03-09 18:01:00,68.0,59.0,-100.00,SE,141,14.0,22.0,72,0.00,,,0.00,72.000000,,2013-03-10 00:01:00,
2013-03-09 18:32:00,67.0,58.0,-100.00,SE,137,11.0,20.0,74,0.00,,,0.00,18.000000,,2013-03-10 00:32:00,
2013-03-09 18:43:00,67.0,58.0,-100.00,SE,137,11.0,20.0,74,0.00,,,0.00,18.000000,,2013-03-10 00:43:00,
2013-03-09 18:52:00,67.0,58.0,-100.00,SE,137,11.0,20.0,74,0.00,,,0.00,18.000000,,2013-03-10 00:52:00,
2013-03-09 19:01:00,67.0,58.0,-100.00,SE,137,11.0,20.0,74,0.00,,,0.00,18.000000,,2013-03-10 01:01:00,
2013-03-09 19:32:00,67.0,59.0,-100.00,SE,141,13.0,19.0,75,0.00,,,-99.99,0.000000,,2013-03-10 01:32:00,
2013-03-09 19:42:00,67.0,59.0,-100.00,SE,141,13.0,19.0,75,0.00,,,-99.99,0.000000,,2013-03-10 01:42:00,
2013-03-09 19:52:00,67.0,59.0,-100.00,SE,141,13.0,19.0,75,0.00,,,-99.99,0.000000,,2013-03-10 01:52:00,
2013-03-09 20:01:00,67.0,59.0,-100.00,SE,141,13.0,19.0,75,0.00,,,-99.99,0.000000,,2013-03-10 02:01:00,
2013-03-09 20:32:00,66.0,58.0,-100.00,SE,142,13.0,22.0,75,0.00,,,-99.99,0.000000,,2013-03-10 02:32:00,
2013-03-09 20:42:00,66.0,58.0,-100.00,SE,142,13.0,22.0,75,0.00,,,-99.99,0.000000,,2013-03-10 02:42:00,
2013-03-09 20:52:00,66.0,58.0,-100.00,SE,142,13.0,22.0,75,0.00,,,-99.99,0.000000,,2013-03-10 02:52:00,
2013-03-09 21:01:00,66.0,58.0,-100.00,SE,142,13.0,22.0,75,0.00,,,-99.99,0.000000,,2013-03-10 03:01:00,
2013-03-09 21:32:00,66.0,58.0,-100.00,SSE,156,13.0,21.0,75,0.00,,,0.00,0.000000,,2013-03-10 03:32:00,
2013-03-09 21:42:00,66.0,58.0,-100.00,SSE,156,13.0,21.0,75,0.00,,,0.00,0.000000,,2013-03-10 03:42:00,
2013-03-09 21:52:00,66.0,58.0,-100.00,SSE,156,13.0,21.0,75,0.00,,,0.00,0.000000,,2013-03-10 03:52:00,
2013-03-09 22:01:00,66.0,58.0,-100.00,SSE,156,13.0,21.0,75,0.00,,,0.00,0.000000,,2013-03-10 04:01:00,
2013-03-09 22:32:00,66.0,58.0,-100.00,SSE,166,11.0,18.0,75,0.00,,,0.00,0.000000,,2013-03-10 04:32:00,
2013-03-09 22:42:00,66.0,58.0,-100.00,SSE,166,11.0,18.0,75,0.00,,,0.00,0.000000,,2013-03-10 04:42:00,
2013-03-09 22:52:00,66.0,58.0,-100.00,SSE,166,11.0,18.0,75,0.00,,,0.00,0.000000,,2013-03-10 04:52:00,
2013-03-09 23:01:00,66.0,58.0,-100.00,SSE,166,11.0,18.0,75,0.00,,,0.00,0.000000,,2013-03-10 05:01:00,
2013-03-09 23:32:00,66.0,58.0,-100.00,South,173,13.0,21.0,76,0.00,,,0.00,0.000000,,2013-03-10 05:32:00,
2013-03-09 23:42:00,66.0,58.0,-100.00,South,173,13.0,21.0,76,0.00,,,0.00,0.000000,,2013-03-10 05:42:00,
2013-03-09 23:52:00,66.0,58.0,-100.00,South,173,13.0,21.0,76,0.00,,,0.00,0.000000,,2013-03-10 05:52:00,